[[{"header":{"parameterUnit":"m.s-1","parameterCategory":1,"la1":30.2991,"la2":30.254,"lo1":-89.0895,"lo2":-89.0444,"dy":0.0017,"dx":0.0017,"nx":28,"ny":28,"refTime":"2024-07-06T09:00:00:Z","depth":0,"parameterNumber":2,"parameterNumberName":"U-component_of_WINDS"},"data":[0,0,0,0,0,0,0,0,0,0,0,0,0,0,0,0,0,0,0,0,0,0,0,0,0,0,0,0,0,0,0,0,0,0,0,0,0,0,0,0,0,0,0,0,0,0,0,0,0,0,0,0,0,0,0,0,0,0,-0.4649,-0.4649,0,-0.4678,-0.4678,-0.4679,-0.4711,-0.4711,-0.4712,-0.4712,-0.4742,-0.4742,-0.4742,0,0,0,0,0,0,0,0,0,0,0,0,0,-0.4622,-0.4622,-0.4649,-0.4649,-0.465,-0.4678,-0.4678,-0.4679,-0.4711,-0.4711,-0.4712,-0.4712,-0.4742,-0.4742,-0.4742,0,0,0,0,0,0,0,0,0,0,0,0,0,-0.464,-0.4622,-0.4649,-0.4669,-0.4671,-0.4678,-0.4678,-0.4679,-0.4711,-0.4711,-0.4712,-0.4713,-0.4741,-0.4742,-0.4742,-0.4731,0,0,-0.4744,-0.4744,0,0,0,0,0,0,0,0,-0.4639,-0.4641,-0.4666,-0.4668,-0.467,-0.4691,-0.4679,-0.4696,-0.471,-0.4696,-0.4712,-0.4713,-0.4724,-0.4726,-0.473,-0.4733,-0.4734,-0.4744,-0.4744,-0.4745,-0.4745,0,0,0,0,0,0,0,-0.4638,-0.464,-0.466,-0.4666,-0.4669,-0.4677,-0.468,-0.4683,-0.4706,-0.4697,-0.4699,-0.4702,-0.4726,-0.473,-0.4731,-0.4734,-0.4744,-0.4745,-0.4745,-0.4745,-0.4729,-0.4728,0,0,0,0,0,0,-0.4633,-0.4639,-0.4659,-0.4661,-0.4656,-0.4677,-0.4681,-0.4684,-0.4706,-0.471,-0.4702,-0.4704,-0.4728,-0.4731,-0.4732,-0.472,-0.4745,-0.4745,-0.4745,-0.473,-0.4729,-0.4728,0,0,0,0,0,0,-0.4633,-0.4635,-0.4658,-0.4651,-0.4654,-0.4676,-0.468,-0.4684,-0.4688,-0.4709,-0.4714,-0.4701,-0.4729,-0.4732,-0.4731,-0.4721,-0.4745,-0.4746,-0.473,-0.4729,-0.4728,-0.4695,0,0,0,0,0,0,-0.4632,-0.4635,-0.463,-0.465,-0.4655,-0.4656,-0.4679,-0.4684,-0.4689,-0.4692,-0.471,-0.4714,-0.473,-0.473,-0.4732,-0.4722,-0.4746,-0.4731,-0.473,-0.4729,-0.4697,-0.4693,-0.4689,0,0,0,0,0,-0.4631,-0.462,-0.463,-0.4632,-0.465,-0.4656,-0.4658,-0.4677,-0.4688,-0.4684,-0.4698,-0.4713,-0.4723,-0.473,-0.4732,-0.4722,-0.4732,-0.473,-0.4729,-0.4698,-0.4693,-0.4689,0,0,0,0,0,0,-0.4598,-0.4623,-0.4634,-0.463,-0.464,-0.4661,-0.4656,-0.4671,-0.4678,-0.4681,-0.4704,-0.4708,-0.4704,-0.4714,-0.4722,-0.4713,-0.473,-0.4728,-0.4706,-0.4701,-0.4697,-0.4694,-0.4747,0,0,0,0,0,-0.459,-0.4593,-0.4615,-0.4608,-0.4613,-0.4634,-0.4637,-0.4651,-0.4663,-0.4667,-0.4681,-0.4692,-0.4697,-0.47,-0.4707,-0.4699,-0.4703,-0.4694,-0.469,-0.4687,-0.4684,-0.468,-0.4676,-0.4722,-0.4722,-0.4722,0,0,-0.4574,-0.4588,-0.4588,-0.4602,-0.4612,-0.4614,-0.4637,-0.4639,-0.464,-0.4668,-0.4667,-0.4678,-0.4692,-0.4688,-0.4687,-0.4696,-0.4673,-0.4685,-0.4682,-0.4681,-0.4678,-0.4674,-0.467,-0.4721,-0.4721,-0.4722,0,0,-0.4545,-0.4557,-0.4552,-0.4562,-0.4576,-0.459,-0.4589,-0.4608,-0.4616,-0.4617,-0.4637,-0.464,-0.4649,-0.4657,-0.4663,-0.4638,-0.4653,-0.464,-0.4619,-0.4614,-0.4611,-0.4607,-0.4597,-0.4593,-0.4638,-0.4638,-0.4638,0,-0.4523,-0.4526,-0.4548,-0.4547,-0.4553,-0.4578,-0.4573,-0.4582,-0.4598,-0.4601,-0.4611,-0.4623,-0.4634,-0.4632,-0.4626,-0.463,-0.4629,-0.4637,-0.461,-0.4607,-0.4604,-0.4594,-0.459,-0.4637,-0.4637,-0.4637,-0.4637,0,-0.4497,-0.45,-0.4495,-0.4509,-0.4514,-0.4512,-0.4533,-0.4535,-0.4549,-0.4562,-0.4562,-0.4577,-0.4586,-0.4587,-0.46,-0.4586,-0.4591,-0.4605,-0.4622,-0.4597,-0.4588,-0.4585,-0.4634,-0.4635,-0.4635,-0.4636,0,0,-0.4446,-0.4473,-0.4471,-0.4477,-0.4496,-0.4498,-0.4498,-0.4507,-0.4508,-0.4519,-0.4517,-0.4525,-0.4538,-0.4545,-0.456,-0.4556,-0.4534,-0.4571,-0.4571,-0.4561,-0.4518,-0.4505,-0.45,-0.4545,-0.4544,-0.4544,-0.4516,0,-0.4419,-0.4418,-0.4437,-0.4431,-0.4433,-0.4458,-0.4457,-0.4468,-0.4481,-0.4484,-0.4499,-0.4503,-0.4521,-0.4525,-0.4523,-0.4537,-0.4525,-0.454,-0.4542,-0.4542,-0.4535,-0.4496,-0.4482,-0.4455,-0.4513,-0.4512,-0.4512,0,-0.4386,-0.4394,-0.4388,-0.4406,-0.4408,-0.4407,-0.4416,-0.442,-0.4434,-0.4443,-0.4451,-0.4468,-0.4468,-0.4486,-0.4487,-0.4496,-0.4499,-0.4506,-0.4506,-0.4504,-0.4523,-0.4491,-0.4447,-0.4442,-0.4507,-0.4507,-0.4508,0,-0.4346,-0.4356,-0.4353,-0.4359,-0.4381,-0.4379,-0.4389,-0.4403,-0.4408,-0.4417,-0.4419,-0.4429,-0.4433,-0.444,-0.4459,-0.4471,-0.4456,-0.4476,-0.4463,-0.4462,-0.4456,-0.4456,-0.4409,-0.4463,-0.4463,-0.4463,-0.4463,0,-0.4311,-0.4306,-0.4336,-0.4333,-0.4328,-0.4352,-0.4346,-0.4358,-0.4371,-0.4371,-0.4395,-0.4395,-0.4422,-0.4425,-0.444,-0.4437,-0.444,-0.4447,-0.445,-0.4443,-0.4441,-0.4443,-0.4444,-0.4462,-0.4462,-0.4462,-0.4462,0,-0.4265,-0.4285,-0.4283,-0.4305,-0.431,-0.4305,-0.4324,-0.4323,-0.4338,-0.4338,-0.434,-0.4363,-0.4368,-0.4388,-0.4399,-0.4409,-0.44,-0.4409,-0.4395,-0.4397,-0.4381,-0.4381,-0.4332,-0.4325,-0.4385,-0.4384,-0.4384,0,-0.424,-0.4236,-0.4258,-0.4259,-0.4268,-0.4271,-0.4275,-0.4299,-0.4303,-0.4319,-0.4315,-0.4323,-0.4329,-0.4336,-0.4353,-0.4361,-0.4369,-0.4351,-0.437,-0.4362,-0.4366,-0.4364,-0.4363,-0.4346,-0.4345,-0.4345,-0.4344,0,-0.4192,-0.4203,-0.4208,-0.4217,-0.4222,-0.423,-0.4239,-0.424,-0.4267,-0.427,-0.4275,-0.428,-0.429,-0.4297,-0.4308,-0.4317,-0.4334,-0.4339,-0.4335,-0.4326,-0.4317,-0.4319,-0.4381,-0.4339,-0.4339,-0.434,-0.434,-0.434,-0.4154,-0.4152,-0.4166,-0.4171,-0.4181,-0.419,-0.419,-0.4205,-0.421,-0.4219,-0.4234,-0.4237,-0.4252,-0.4268,-0.4277,-0.428,-0.4289,-0.4285,-0.4284,-0.4282,-0.4277,-0.4319,-0.4282,-0.4282,-0.4283,-0.4283,-0.4283,0,-0.4106,-0.4117,-0.4122,-0.4134,-0.4138,-0.4156,-0.4168,-0.4169,-0.4172,-0.4184,-0.419,-0.4196,-0.4203,-0.4221,-0.423,-0.4228,-0.4236,-0.4229,-0.4228,-0.423,-0.4269,-0.427,-0.4222,-0.4222,-0.4223,-0.4223,-0.4223,-0.4223,-0.4081,-0.4077,-0.4089,-0.4091,-0.4102,-0.4105,-0.411,-0.4118,-0.4128,-0.4133,-0.4139,-0.4151,-0.4166,-0.4176,-0.4182,-0.4188,-0.4188,-0.4178,-0.4186,-0.4221,-0.4227,-0.4232,-0.4233,-0.4179,-0.4179,-0.4146,-0.4145,-0.4145]},{"header":{"parameterUnit":"m.s-1","parameterCategory":1,"la1":30.2991,"la2":30.254,"lo1":-89.0895,"lo2":-89.0444,"dy":0.0017,"dx":0.0017,"nx":28,"ny":28,"refTime":"2024-07-06T09:00:00:Z","depth":0,"parameterNumber":3,"parameterNumberName":"V-component_of_WINDS"},"data":[0,0,0,0,0,0,0,0,0,0,0,0,0,0,0,0,0,0,0,0,0,0,0,0,0,0,0,0,0,0,0,0,0,0,0,0,0,0,0,0,0,0,0,0,0,0,0,0,0,0,0,0,0,0,0,0,0,0,-0.6116,-0.6117,0,-0.6162,-0.6163,-0.6164,-0.6159,-0.6159,-0.6158,-0.6157,-0.6207,-0.6209,-0.6211,0,0,0,0,0,0,0,0,0,0,0,0,0,-0.6024,-0.6026,-0.6116,-0.6117,-0.6117,-0.6162,-0.6163,-0.6164,-0.6159,-0.6159,-0.6158,-0.6157,-0.6207,-0.6209,-0.6211,0,0,0,0,0,0,0,0,0,0,0,0,0,-0.6067,-0.6026,-0.6116,-0.612,-0.6121,-0.6162,-0.6163,-0.6164,-0.616,-0.6159,-0.6157,-0.6156,-0.6206,-0.6209,-0.6212,-0.6252,0,0,-0.6221,-0.6222,0,0,0,0,0,0,0,0,-0.6064,-0.607,-0.6119,-0.612,-0.6121,-0.6154,-0.6149,-0.6194,-0.616,-0.6145,-0.6157,-0.6156,-0.6191,-0.6195,-0.6206,-0.6254,-0.6257,-0.6221,-0.6223,-0.6224,-0.6225,0,0,0,0,0,0,0,-0.6061,-0.6068,-0.6134,-0.612,-0.6121,-0.612,-0.6125,-0.6157,-0.6174,-0.6146,-0.6146,-0.6152,-0.6191,-0.6203,-0.6207,-0.6257,-0.6221,-0.6224,-0.6226,-0.6227,-0.6338,-0.6339,0,0,0,0,0,0,-0.6057,-0.6066,-0.6133,-0.6136,-0.6089,-0.6123,-0.6128,-0.6145,-0.6173,-0.6176,-0.6152,-0.6151,-0.6199,-0.6204,-0.6209,-0.6256,-0.6224,-0.6227,-0.6229,-0.6337,-0.6338,-0.634,0,0,0,0,0,0,-0.6055,-0.6063,-0.6131,-0.6101,-0.6109,-0.6125,-0.6144,-0.6146,-0.6158,-0.6178,-0.6181,-0.6162,-0.6198,-0.6205,-0.6241,-0.6258,-0.6229,-0.6231,-0.6336,-0.6337,-0.6339,-0.6352,0,0,0,0,0,0,-0.6052,-0.6062,-0.6078,-0.6101,-0.6111,-0.6162,-0.6145,-0.6148,-0.6163,-0.6162,-0.6187,-0.6191,-0.6198,-0.6236,-0.6244,-0.6262,-0.6234,-0.6334,-0.6336,-0.6338,-0.6351,-0.6354,-0.6358,0,0,0,0,0,-0.6049,-0.6081,-0.6079,-0.6087,-0.6131,-0.6163,-0.6169,-0.6176,-0.6165,-0.618,-0.6192,-0.619,-0.6255,-0.624,-0.6248,-0.6268,-0.6333,-0.6336,-0.6338,-0.6349,-0.6354,-0.6358,0,0,0,0,0,0,-0.6062,-0.6084,-0.6082,-0.6123,-0.6141,-0.6162,-0.6183,-0.6181,-0.6203,-0.6201,-0.6209,-0.6215,-0.6251,-0.6263,-0.6246,-0.6306,-0.6292,-0.6297,-0.6298,-0.6302,-0.6306,-0.6302,-0.6236,0,0,0,0,0,-0.6069,-0.6093,-0.6112,-0.6145,-0.6154,-0.6167,-0.6181,-0.6184,-0.6204,-0.6212,-0.6227,-0.6246,-0.6271,-0.6287,-0.6311,-0.6352,-0.6356,-0.6369,-0.6372,-0.6375,-0.6379,-0.6399,-0.6405,-0.6348,-0.6348,-0.6348,0,0,-0.6085,-0.61,-0.6115,-0.6148,-0.6163,-0.6187,-0.6174,-0.6201,-0.6219,-0.6217,-0.6251,-0.6262,-0.6284,-0.6322,-0.6339,-0.6333,-0.6395,-0.6379,-0.6381,-0.6383,-0.6403,-0.6408,-0.6413,-0.635,-0.635,-0.6349,0,0,-0.6126,-0.614,-0.6169,-0.6183,-0.6204,-0.6211,-0.6218,-0.6239,-0.6246,-0.628,-0.6278,-0.63,-0.6342,-0.6358,-0.6371,-0.6414,-0.6412,-0.6421,-0.644,-0.646,-0.6465,-0.6469,-0.6483,-0.6488,-0.6425,-0.6425,-0.6425,0,-0.6143,-0.618,-0.6184,-0.6211,-0.6225,-0.6221,-0.625,-0.6263,-0.6292,-0.6302,-0.6294,-0.6345,-0.636,-0.64,-0.641,-0.6421,-0.6429,-0.6419,-0.6463,-0.6467,-0.6471,-0.6485,-0.649,-0.6426,-0.6426,-0.6426,-0.6426,0,-0.6199,-0.6224,-0.6245,-0.627,-0.6286,-0.6314,-0.6322,-0.6338,-0.6339,-0.6347,-0.638,-0.6397,-0.6423,-0.6433,-0.6435,-0.6473,-0.6468,-0.6462,-0.6448,-0.6477,-0.649,-0.6496,-0.6427,-0.6427,-0.6427,-0.6426,0,0,-0.6252,-0.6277,-0.6284,-0.6295,-0.6316,-0.6336,-0.6362,-0.6386,-0.6399,-0.6418,-0.644,-0.6474,-0.6467,-0.6483,-0.6486,-0.6503,-0.6534,-0.6494,-0.6495,-0.65,-0.6575,-0.6579,-0.6585,-0.6532,-0.6533,-0.6534,-0.6573,0,-0.6295,-0.6341,-0.6344,-0.6386,-0.6408,-0.6404,-0.6426,-0.6442,-0.6449,-0.6469,-0.6478,-0.6501,-0.6491,-0.65,-0.6517,-0.6527,-0.6549,-0.6524,-0.6552,-0.6553,-0.6547,-0.6592,-0.6598,-0.6634,-0.6578,-0.6579,-0.6579,0,-0.6352,-0.637,-0.6413,-0.6429,-0.6439,-0.6459,-0.648,-0.6499,-0.6516,-0.652,-0.6535,-0.6535,-0.6561,-0.6545,-0.6581,-0.6564,-0.6575,-0.6581,-0.6583,-0.6586,-0.6569,-0.6597,-0.6646,-0.6651,-0.6588,-0.6587,-0.6586,0,-0.6385,-0.642,-0.645,-0.6459,-0.6479,-0.6493,-0.6502,-0.6517,-0.653,-0.6549,-0.6557,-0.6579,-0.659,-0.6607,-0.6612,-0.66,-0.6647,-0.6632,-0.6651,-0.6651,-0.6662,-0.6661,-0.6713,-0.6669,-0.6669,-0.6669,-0.6669,0,-0.6433,-0.6459,-0.6465,-0.6484,-0.6512,-0.6515,-0.6544,-0.6552,-0.6565,-0.6584,-0.6582,-0.66,-0.6606,-0.6626,-0.663,-0.6658,-0.6664,-0.6667,-0.6668,-0.6667,-0.6667,-0.6676,-0.6673,-0.6671,-0.667,-0.667,-0.667,0,-0.6475,-0.648,-0.6512,-0.6527,-0.6531,-0.6551,-0.6564,-0.6581,-0.6587,-0.6611,-0.6617,-0.6627,-0.6649,-0.6655,-0.6683,-0.6685,-0.6718,-0.6717,-0.6712,-0.6712,-0.673,-0.6728,-0.679,-0.6797,-0.6749,-0.6749,-0.6749,0,-0.6505,-0.6525,-0.6541,-0.6553,-0.6562,-0.6582,-0.6594,-0.6597,-0.661,-0.6629,-0.6644,-0.6665,-0.6682,-0.6718,-0.6727,-0.6747,-0.6746,-0.6766,-0.675,-0.6747,-0.6746,-0.6744,-0.6746,-0.677,-0.677,-0.6771,-0.6771,0,-0.6558,-0.6558,-0.6577,-0.6595,-0.6609,-0.6624,-0.6638,-0.6648,-0.6653,-0.6668,-0.6689,-0.6703,-0.6729,-0.675,-0.6769,-0.6778,-0.6775,-0.6776,-0.6781,-0.6781,-0.6777,-0.6778,-0.672,-0.6775,-0.6775,-0.6774,-0.6774,-0.6774,-0.6595,-0.6611,-0.6624,-0.6643,-0.6653,-0.6666,-0.6682,-0.6689,-0.6706,-0.6727,-0.6727,-0.6751,-0.6764,-0.679,-0.68,-0.6818,-0.6812,-0.682,-0.6822,-0.6824,-0.6824,-0.6774,-0.6821,-0.6821,-0.6821,-0.6821,-0.6821,0,-0.6646,-0.6653,-0.6671,-0.669,-0.6704,-0.6698,-0.6713,-0.6726,-0.6746,-0.6758,-0.6774,-0.6798,-0.6817,-0.6827,-0.6846,-0.6858,-0.6857,-0.6863,-0.6862,-0.6864,-0.6829,-0.6822,-0.6864,-0.6864,-0.6864,-0.6864,-0.6864,-0.6864,-0.6675,-0.6702,-0.6704,-0.6735,-0.6742,-0.6764,-0.6772,-0.6783,-0.6793,-0.6819,-0.6834,-0.684,-0.685,-0.687,-0.6887,-0.6889,-0.6896,-0.6903,-0.6904,-0.6871,-0.6867,-0.6863,-0.6856,-0.6904,-0.6904,-0.6937,-0.6938,-0.6938]}]]